SCP
0 0 0 0 0 0 0 0 0 0 0 0 0 0 0 0 0 0 0 0 0 0 0 0 0 0 0 0 0 0 0 0 0 0 0 0 0 0 0 0 0 0 0 0
0 0 0 0 0 0 0 0 0 0 0 0 0 0 0 0 0 0 0 0 0 0 0 0 0 0 0 0 0 0 0 0 0 0 0 0 0 0 0 0 0 0 0 0
0 0 0 0 0 0 0 0 0 0 0 0 0 0 0 0 0 0 0 0 0 0 0 0 0 0 0 0 0 0 0 0 0 0 0 0 0 0 0 0 0 0 0 0
0 0 0 0 0 0 0 0 0 0 0 0 0 0 0 0 0 0 0 0 0 0 0 0 0 0 0 0 0 0 0 0 0 0 0 0 0 0 0 0 0 0 0 0
0 0 0 0 0 0 0 0 0 0 0 0 0 0 -0 0 0 0 0 0 0 0 0 0 0 0 0 0 0 0 0 0 0 0 0 0 0 0 0 0 0 0 0 0
0 0 0 0 0 0 0 0 0 0 0 0 0 0 -0 0 0 0 0 0 0 0 0 0 0 0 0 0 0 0 0 0 0 0 0 0 0 0 0 0 0 0 0 0
0 0 0 0 0 0 0 0 0 0 0 0 0 0 0 0 0 0 0 0 0 0 0 0 0 0 0 0 0 0 0 0 0 0 0 0 0 0 0 0 0 0 0 0
0 0 0 0 0 0 0 0 0 0 0 0 0 0 0 0 0 0 0 0 0 -0 -0 0 0 0 0 0 0 0 0 0 0 0 0 0 0 0 0 0 0 0 0 0
0 0 0 0 0 0 0 0 0 0 0 0 0 0 0 0 0 0 0 0 -0 -0 0 -0 0 0 0 0 0 0 0 0 0 0 0 0 0 0 0 0 0 0 0 0
0 0 0 0 0 0 -0 0 0 0 0 0 0 0 0 0 0 0 0 0 0 0 0 0 0 0 0 0 0 0 0 0 0 0 0 0 0 0 0 0 0 0 0 0
0 0 0 0 0 0 0 0 0 0 0 0 0 0 0 0 0 0 0 0 0 0 0 0 0 0 0 0 0 0 0 0 0 0 0 0 0 0 0 0 0 0 0 0
0 0 0 0 0 0 0 0 0 0 0 0 0 0 0 0 0 0 0 0 0 0 0 0 0 0 0 0 0 0 0 0 0 0 0 0 0 0 0 0 0 0 0 0
0 0 0 0 0 0 0 0 0 0 0 0 0 0 0 0 0 0 0 0 -0 0 0 0 0 0 0 0 0 0 0 0 0 0 0 0 0 0 0 0 0 0 0 0
0 0 0 0 0 0 0 0 0 0 0 0 0 0 0 -0 -0 0 0 0 0 -0 -0 0 0 0 0 0 0 0 0 0 0 0 0 0 0 0 0 0 0 0 0 0
0 0 0 0 0 0 0 0 0 0 0 0 0 0 0 0 0 0 0 0 0 0 -0 0 -0 -0 0 0 0 0 0 0 0 0 0 0 0 0 0 0 0 0 0 0
0 0 0 0 0 0 0 0 0 0 0 0 0 0 0 0 0 0 0 -0 -0 0 -0 -0 -0 -0 -0 -0 0 0 0 0 0 0 0 0 0 0 0 0 0 0 0 0
0 0 0 0 0 0 0 0 0 0 0 0 0 0 0 0 0 0 -0 -0 -0 0 0 -0 -0 -0 -0 -0 -0 0 0 0 0 0 0 0 0 0 0 0 0 0 0 0
0 0 0 0 0 0 0 0 0 0 0 0 0 0 0 0 0 0 -0 -0 -0 -0 0 0 -0 -0 -0 0 0 0 0 0 0 0 0 0 0 0 0 0 0 0 0 0
0 0 0 0 0 0 0 0 0 0 0 0 0 0 0 0 0 0 0 0 -0 -0 -0 0 -0 0 0 0 0 0 0 0 0 0 0 0 0 0 0 0 0 0 0 0
0 0 0 0 0 0 0 0 0 0 0 0 0 0 0 0 0 0 0 0 0 0 -0 -0 -0 -0 0 0 0 0 0 0 0 0 0 0 0 0 0 0 0 0 0 0
0 0 0 0 0 0 0 0 0 0 0 0 0 0 0 0 0 0 0 0 0 0 0 -0 0 -0 0 0 0 0 0 0 0 0 0 0 0 0 0 0 0 0 0 0
0 0 0 0 0 -0 0 0 0 0 0 0 0 0 0 0 0 0 0 0 0 0 0 -0 0 0 0 0 0 0 0 0 0 0 0 0 0 0 0 0 0 0 0 0
0 0 0 0 0 0 0 0 0 0 0 0 0 0 0 0 0 0 0 0 0 0 0 -0 -0 0 0 0 0 0 0 0 0 0 0 0 0 0 0 0 0 0 0 0
0 0 0 0 0 0 0 0 0 0 0 0 0 0 0 0 0 0 0 0 0 0 0 -0 -0 -0 -0 0 0 0 0 0 0 0 0 0 0 0 0 0 0 0 0 0
0 0 0 0 0 0 0 0 0 0 0 0 0 0 0 0 0 0 0 0 0 0 0 -0 -0 -0 0 0 0 0 0 0 0 0 0 0 0 0 0 0 0 0 0 0
0 0 0 0 0 0 0 0 0 0 0 0 0 0 0 0 0 0 0 0 0 0 -0 -0 -0 -0 -0 0 0 0 0 0 0 0 0 0 0 0 0 0 0 0 0 0
Wind_Speed_500mb
11 16 26 23 22 29 4 10 15 5 8 8 14 31 19 30 43 38 58 68 70 67 56 63 72 66 66 75 94 96 96 92 94 101 98 96 93 89 87 84 81 77 71 70
8 25 16 12 14 20 14 20 34 14 16 8 29 46 36 19 26 47 53 62 66 69 58 47 53 60 62 59 67 99 105 100 102 103 99 101 99 95 92 89 87 83 80 77
23 7 8 10 14 16 18 27 27 24 4 14 13 38 34 18 32 54 67 73 77 76 70 60 60 63 63 66 61 70 101 104 108 105 103 93 90 92 96 99 96 91 85 84
16 17 25 29 22 17 25 17 30 31 12 10 11 17 11 4 17 18 46 59 66 68 65 71 74 78 79 80 70 63 71 98 109 110 105 98 96 98 108 108 104 95 90 90
7 5 14 8 12 19 14 13 13 14 16 11 15 8 10 3 12 17 18 52 62 69 57 63 62 59 64 77 82 82 74 85 105 115 113 103 100 94 92 95 105 104 98 94
24 23 12 6 19 19 12 7 17 8 6 15 28 13 35 18 20 16 27 46 42 43 46 42 49 50 54 55 68 69 77 78 88 105 113 106 102 100 90 89 96 102 103 101
6 5 1 1 10 19 23 10 7 4 7 20 17 14 38 7 10 13 23 46 57 44 46 56 51 50 54 55 54 65 71 84 84 92 108 107 106 107 96 93 96 93 96 101
3 4 12 6 8 4 2 9 10 9 9 8 5 16 22 7 13 21 32 43 38 36 49 50 55 49 48 40 40 48 65 81 85 89 97 107 115 113 103 94 92 94 100 102
6 8 6 9 7 10 5 9 5 12 24 13 8 15 21 25 27 17 25 38 52 48 49 53 63 54 48 41 48 44 48 65 80 91 89 96 105 114 112 102 96 96 99 95
9 3 9 6 2 14 12 4 4 9 14 28 14 23 23 16 19 24 17 32 57 69 71 68 68 65 53 47 40 46 48 56 68 86 95 95 96 103 114 112 104 101 103 98
8 7 6 1 9 7 4 4 5 2 6 8 11 14 8 17 13 18 21 33 47 60 64 73 76 69 61 52 47 37 46 50 58 75 88 95 99 102 108 112 108 106 105 102
13 7 7 18 15 5 6 9 8 5 3 3 6 12 10 10 22 19 38 40 50 58 60 67 73 69 65 59 53 37 30 46 55 62 69 82 91 95 96 98 97 97 104 103
12 6 2 15 10 5 7 8 10 6 2 12 8 13 5 34 23 35 36 78 55 66 84 76 76 71 71 67 57 39 28 29 38 48 62 73 81 84 85 89 90 93 94 99
20 13 14 17 16 6 4 7 13 12 5 22 20 40 45 22 18 21 44 62 81 62 76 70 75 74 74 69 61 47 37 33 32 37 47 57 67 76 78 81 85 89 93 95
12 11 16 33 34 11 19 23 20 24 31 16 38 31 44 37 34 29 45 54 71 66 64 73 69 69 77 78 71 52 43 42 30 29 34 45 54 61 66 72 78 84 92 93
8 16 12 24 34 27 30 30 38 36 35 25 39 41 48 60 61 38 35 38 42 83 60 56 56 63 60 73 74 59 46 48 52 32 29 28 37 50 58 64 71 78 85 89
12 8 8 32 18 17 22 39 44 30 27 20 27 42 44 35 23 22 33 28 44 59 70 55 70 72 63 73 72 60 49 51 54 49 41 31 31 38 47 56 63 74 82 85
21 22 15 11 4 22 32 15 19 27 28 22 33 41 34 41 46 23 36 42 43 50 68 75 72 70 71 74 75 65 56 54 54 56 51 46 40 41 42 48 58 66 68 80
32 23 12 12 13 19 14 13 13 14 29 25 37 37 37 63 24 25 34 39 34 51 67 71 60 71 84 81 74 72 61 49 55 62 59 54 51 54 52 50 54 62 69 74
34 34 23 9 13 23 34 36 27 10 15 41 25 36 31 21 12 18 30 39 57 63 69 60 82 75 86 80 73 78 62 61 68 67 59 63 67 64 61 57 54 59 65 72
8 20 34 33 28 16 16 10 29 16 28 32 33 39 33 15 25 53 58 50 67 69 73 75 75 92 90 82 75 83 73 59 59 44 44 53 61 61 62 60 56 57 62 65
15 11 12 9 22 37 14 15 25 37 48 31 33 38 42 53 61 69 69 56 61 70 80 71 81 95 88 78 75 85 73 62 58 52 50 54 60 59 58 63 61 58 61 64
12 22 18 15 12 9 26 36 56 55 49 53 52 62 61 59 64 70 76 62 62 73 79 80 89 93 91 79 75 85 66 54 53 59 62 73 68 67 63 64 66 63 66 66
13 6 14 16 28 26 33 49 53 61 68 66 54 54 65 67 73 73 79 66 76 82 79 77 86 93 98 89 83 85 57 52 56 65 70 72 71 73 68 66 67 67 71 71
9 13 15 11 31 8 35 57 74 75 66 58 65 65 68 70 73 71 74 75 83 90 89 73 84 100 105 93 87 80 56 54 55 57 59 58 62 66 66 66 67 69 71 70
9 15 10 14 26 17 35 65 39 37 49 60 64 74 74 66 72 74 78 79 86 89 95 87 91 95 100 91 88 76 65 55 54 55 59 56 58 62 66 66 65 66 66 59
Wind_Direction_500mb
201 217 225 220 226 243 282 244 250 286 255 257 247 266 257 256 263 266 268 271 272 272 279 261 257 253 246 243 239 242 238 235 229 226 225 225 231 231 232 231 231 233 236 237
225 242 228 215 227 256 262 271 270 283 252 253 274 278 279 233 244 251 256 263 267 273 275 274 257 251 250 251 242 237 238 238 233 229 232 230 230 232 236 232 233 233 234 235
232 236 80 192 235 239 236 241 260 254 296 249 287 279 273 251 234 251 257 262 266 266 269 264 257 254 255 256 251 243 237 237 236 233 231 223 227 232 232 235 234 233 233 235
259 236 243 257 244 191 258 220 247 259 262 244 169 280 236 252 251 230 250 256 261 264 262 262 258 258 260 262 257 254 246 238 237 234 226 218 218 222 234 236 236 234 232 236
227 10 43 284 247 202 247 347 279 261 240 239 250 250 287 90 269 276 254 260 267 272 277 279 273 273 276 268 264 259 251 244 239 235 228 220 220 226 235 230 238 237 231 234
253 302 301 228 293 295 347 314 317 258 193 242 241 189 278 239 242 262 285 277 278 291 290 295 306 267 294 277 252 253 245 243 241 237 230 222 221 225 222 226 232 238 235 231
211 198 351 312 275 248 250 268 270 258 211 241 168 194 243 306 270 248 266 274 294 310 308 318 321 311 297 286 265 243 240 236 238 239 235 223 223 233 227 228 232 231 231 235
162 282 188 207 146 237 319 227 227 233 221 275 181 219 235 198 252 277 285 303 321 344 343 344 334 326 309 293 291 260 245 235 234 237 237 233 231 233 229 229 227 230 239 245
132 272 268 231 198 168 130 269 352 264 259 275 224 281 287 284 281 323 324 328 335 350 351 345 347 336 323 309 277 259 254 246 241 237 235 235 234 236 233 232 233 236 242 246
216 295 245 294 315 250 214 96 292 229 249 244 211 233 247 284 14 10 360 336 333 334 334 335 340 345 344 322 305 261 255 249 247 241 236 236 237 238 239 238 236 237 241 246
140 140 280 13 210 205 159 210 202 254 274 311 251 246 343 78 21 320 313 324 324 326 328 331 332 335 337 347 324 297 256 249 248 245 241 238 238 238 238 237 237 238 241 243
208 163 219 224 249 249 257 238 196 195 225 252 266 266 147 49 359 338 319 323 320 320 326 331 333 333 332 339 343 310 294 265 248 246 246 243 242 239 234 232 231 235 241 243
186 213 349 327 325 127 197 204 159 113 143 242 262 264 280 337 333 320 327 318 321 324 329 330 332 331 336 337 337 313 312 284 271 259 251 246 244 239 233 232 231 231 234 243
191 185 194 227 225 139 137 164 169 173 207 251 242 274 284 286 293 314 306 307 313 319 321 322 327 330 330 332 331 321 306 308 288 263 255 249 247 244 238 238 235 232 234 237
188 251 219 243 257 240 253 258 240 223 239 240 264 268 277 285 288 281 298 303 308 312 316 320 325 323 322 324 320 316 302 308 300 281 260 256 252 250 248 246 244 243 240 242
182 242 220 245 245 241 244 248 251 248 252 245 254 268 265 267 277 286 288 298 307 307 312 319 333 334 325 332 319 313 297 305 304 288 292 279 260 255 251 249 247 247 244 245
183 198 205 253 245 230 235 236 244 251 241 225 241 246 262 277 265 271 286 282 297 299 308 315 320 324 326 331 324 302 295 289 288 275 288 282 274 267 256 251 248 244 241 242
236 224 224 251 204 232 238 234 218 229 241 215 240 251 258 265 273 270 277 285 297 302 307 314 319 319 318 323 324 309 288 285 275 268 269 275 282 277 270 256 250 247 248 246
222 233 233 229 227 266 287 232 170 187 259 221 233 251 254 262 280 245 260 291 295 301 313 310 313 310 311 314 319 318 292 265 269 278 273 275 278 285 269 262 254 248 243 245
219 217 227 200 233 229 240 255 176 125 259 251 214 235 241 248 252 258 270 302 310 303 308 306 309 310 310 311 313 315 296 278 261 266 270 274 273 273 267 264 262 255 246 242
202 215 221 231 246 248 239 159 142 171 240 269 215 226 226 213 234 270 290 295 308 300 303 308 306 310 308 310 310 309 303 281 261 266 270 267 265 264 260 260 259 255 250 244
186 184 218 229 243 255 180 141 196 227 252 262 253 241 232 249 265 282 294 291 298 298 301 298 302 304 306 304 306 307 299 286 283 264 260 260 262 262 259 258 259 253 246 245
241 208 230 198 226 242 208 218 234 254 259 259 258 269 266 262 268 284 286 289 290 293 291 297 301 302 302 298 300 305 298 299 281 264 251 254 256 262 258 256 253 249 243 241
243 184 229 226 246 245 255 258 261 267 266 269 271 267 270 269 277 277 282 285 291 291 286 292 298 296 298 295 295 302 300 296 282 266 258 251 252 253 252 251 250 245 242 241
216 158 216 247 261 308 264 261 262 267 271 276 279 277 273 275 279 277 283 286 287 287 286 285 290 293 292 291 292 297 297 297 285 276 259 246 245 246 249 249 249 247 247 246
185 216 215 238 256 215 260 267 279 285 285 285 283 283 283 280 280 282 280 281 281 281 285 284 284 284 288 288 293 288 295 295 286 276 260 250 247 245 245 244 242 241 243 244
Wind_Speed_850mb
11 16 26 23 22 29 4 10 15 5 8 8 14 31 19 30 43 38 58 68 70 67 56 63 72 66 66 75 94 96 96 92 94 101 98 96 93 89 87 84 81 77 71 70
8 25 16 12 14 20 14 20 34 14 16 8 29 46 36 19 26 47 53 62 66 69 58 47 53 60 62 59 67 99 105 100 102 103 99 101 99 95 92 89 87 83 80 77
23 7 8 10 14 16 18 27 27 24 4 14 13 38 34 18 32 54 67 73 77 76 70 60 60 63 63 66 61 70 101 104 108 105 103 93 90 92 96 99 96 91 85 84
16 17 25 29 22 17 25 17 30 31 12 10 11 17 11 4 17 18 46 59 66 68 65 71 74 78 79 80 70 63 71 98 109 110 105 98 96 98 108 108 104 95 90 90
7 5 14 8 12 19 14 13 13 14 16 11 15 8 10 3 12 17 18 52 62 69 57 63 62 59 64 77 82 82 74 85 105 115 113 103 100 94 92 95 105 104 98 94
24 23 12 6 19 19 12 7 17 8 6 15 28 13 35 18 20 16 27 46 42 43 46 42 49 50 54 55 68 69 77 78 88 105 113 106 102 100 90 89 96 102 103 101
6 5 1 1 10 19 23 10 7 4 7 20 17 14 38 7 10 13 23 46 57 44 46 56 51 50 54 55 54 65 71 84 84 92 108 107 106 107 96 93 96 93 96 101
3 4 12 6 8 4 2 9 10 9 9 8 5 16 22 7 13 21 32 43 38 36 49 50 55 49 48 40 40 48 65 81 85 89 97 107 115 113 103 94 92 94 100 102
6 8 6 9 7 10 5 9 5 12 24 13 8 15 21 25 27 17 25 38 52 48 49 53 63 54 48 41 48 44 48 65 80 91 89 96 105 114 112 102 96 96 99 95
9 3 9 6 2 14 12 4 4 9 14 28 14 23 23 16 19 24 17 32 57 69 71 68 68 65 53 47 40 46 48 56 68 86 95 95 96 103 114 112 104 101 103 98
8 7 6 1 9 7 4 4 5 2 6 8 11 14 8 17 13 18 21 33 47 60 64 73 76 69 61 52 47 37 46 50 58 75 88 95 99 102 108 112 108 106 105 102
13 7 7 18 15 5 6 9 8 5 3 3 6 12 10 10 22 19 38 40 50 58 60 67 73 69 65 59 53 37 30 46 55 62 69 82 91 95 96 98 97 97 104 103
12 6 2 15 10 5 7 8 10 6 2 12 8 13 5 34 23 35 36 78 55 66 84 76 76 71 71 67 57 39 28 29 38 48 62 73 81 84 85 89 90 93 94 99
20 13 14 17 16 6 4 7 13 12 5 22 20 40 45 22 18 21 44 62 81 62 76 70 75 74 74 69 61 47 37 33 32 37 47 57 67 76 78 81 85 89 93 95
12 11 16 33 34 11 19 23 20 24 31 16 38 31 44 37 34 29 45 54 71 66 64 73 69 69 77 78 71 52 43 42 30 29 34 45 54 61 66 72 78 84 92 93
8 16 12 24 34 27 30 30 38 36 35 25 39 41 48 60 61 38 35 38 42 83 60 56 56 63 60 73 74 59 46 48 52 32 29 28 37 50 58 64 71 78 85 89
12 8 8 32 18 17 22 39 44 30 27 20 27 42 44 35 23 22 33 28 44 59 70 55 70 72 63 73 72 60 49 51 54 49 41 31 31 38 47 56 63 74 82 85
21 22 15 11 4 22 32 15 19 27 28 22 33 41 34 41 46 23 36 42 43 50 68 75 72 70 71 74 75 65 56 54 54 56 51 46 40 41 42 48 58 66 68 80
32 23 12 12 13 19 14 13 13 14 29 25 37 37 37 63 24 25 34 39 34 51 67 71 60 71 84 81 74 72 61 49 55 62 59 54 51 54 52 50 54 62 69 74
34 34 23 9 13 23 34 36 27 10 15 41 25 36 31 21 12 18 30 39 57 63 69 60 82 75 86 80 73 78 62 61 68 67 59 63 67 64 61 57 54 59 65 72
8 20 34 33 28 16 16 10 29 16 28 32 33 39 33 15 25 53 58 50 67 69 73 75 75 92 90 82 75 83 73 59 59 44 44 53 61 61 62 60 56 57 62 65
15 11 12 9 22 37 14 15 25 37 48 31 33 38 42 53 61 69 69 56 61 70 80 71 81 95 88 78 75 85 73 62 58 52 50 54 60 59 58 63 61 58 61 64
12 22 18 15 12 9 26 36 56 55 49 53 52 62 61 59 64 70 76 62 62 73 79 80 89 93 91 79 75 85 66 54 53 59 62 73 68 67 63 64 66 63 66 66
13 6 14 16 28 26 33 49 53 61 68 66 54 54 65 67 73 73 79 66 76 82 79 77 86 93 98 89 83 85 57 52 56 65 70 72 71 73 68 66 67 67 71 71
9 13 15 11 31 8 35 57 74 75 66 58 65 65 68 70 73 71 74 75 83 90 89 73 84 100 105 93 87 80 56 54 55 57 59 58 62 66 66 66 67 69 71 70
9 15 10 14 26 17 35 65 39 37 49 60 64 74 74 66 72 74 78 79 86 89 95 87 91 95 100 91 88 76 65 55 54 55 59 56 58 62 66 66 65 66 66 59
Wind_Direction_850mb
201 217 225 220 226 243 282 244 250 286 255 257 247 266 257 256 263 266 268 271 272 272 279 261 257 253 246 243 239 242 238 235 229 226 225 225 231 231 232 231 231 233 236 237
225 242 228 215 227 256 262 271 270 283 252 253 274 278 279 233 244 251 256 263 267 273 275 274 257 251 250 251 242 237 238 238 233 229 232 230 230 232 236 232 233 233 234 235
232 236 80 192 235 239 236 241 260 254 296 249 287 279 273 251 234 251 257 262 266 266 269 264 257 254 255 256 251 243 237 237 236 233 231 223 227 232 232 235 234 233 233 235
259 236 243 257 244 191 258 220 247 259 262 244 169 280 236 252 251 230 250 256 261 264 262 262 258 258 260 262 257 254 246 238 237 234 226 218 218 222 234 236 236 234 232 236
227 10 43 284 247 202 247 347 279 261 240 239 250 250 287 90 269 276 254 260 267 272 277 279 273 273 276 268 264 259 251 244 239 235 228 220 220 226 235 230 238 237 231 234
253 302 301 228 293 295 347 314 317 258 193 242 241 189 278 239 242 262 285 277 278 291 290 295 306 267 294 277 252 253 245 243 241 237 230 222 221 225 222 226 232 238 235 231
211 198 351 312 275 248 250 268 270 258 211 241 168 194 243 306 270 248 266 274 294 310 308 318 321 311 297 286 265 243 240 236 238 239 235 223 223 233 227 228 232 231 231 235
162 282 188 207 146 237 319 227 227 233 221 275 181 219 235 198 252 277 285 303 321 344 343 344 334 326 309 293 291 260 245 235 234 237 237 233 231 233 229 229 227 230 239 245
132 272 268 231 198 168 130 269 352 264 259 275 224 281 287 284 281 323 324 328 335 350 351 345 347 336 323 309 277 259 254 246 241 237 235 235 234 236 233 232 233 236 242 246
216 295 245 294 315 250 214 96 292 229 249 244 211 233 247 284 14 10 360 336 333 334 334 335 340 345 344 322 305 261 255 249 247 241 236 236 237 238 239 238 236 237 241 246
140 140 280 13 210 205 159 210 202 254 274 311 251 246 343 78 21 320 313 324 324 326 328 331 332 335 337 347 324 297 256 249 248 245 241 238 238 238 238 237 237 238 241 243
208 163 219 224 249 249 257 238 196 195 225 252 266 266 147 49 359 338 319 323 320 320 326 331 333 333 332 339 343 310 294 265 248 246 246 243 242 239 234 232 231 235 241 243
186 213 349 327 325 127 197 204 159 113 143 242 262 264 280 337 333 320 327 318 321 324 329 330 332 331 336 337 337 313 312 284 271 259 251 246 244 239 233 232 231 231 234 243
191 185 194 227 225 139 137 164 169 173 207 251 242 274 284 286 293 314 306 307 313 319 321 322 327 330 330 332 331 321 306 308 288 263 255 249 247 244 238 238 235 232 234 237
188 251 219 243 257 240 253 258 240 223 239 240 264 268 277 285 288 281 298 303 308 312 316 320 325 323 322 324 320 316 302 308 300 281 260 256 252 250 248 246 244 243 240 242
182 242 220 245 245 241 244 248 251 248 252 245 254 268 265 267 277 286 288 298 307 307 312 319 333 334 325 332 319 313 297 305 304 288 292 279 260 255 251 249 247 247 244 245
183 198 205 253 245 230 235 236 244 251 241 225 241 246 262 277 265 271 286 282 297 299 308 315 320 324 326 331 324 302 295 289 288 275 288 282 274 267 256 251 248 244 241 242
236 224 224 251 204 232 238 234 218 229 241 215 240 251 258 265 273 270 277 285 297 302 307 314 319 319 318 323 324 309 288 285 275 268 269 275 282 277 270 256 250 247 248 246
222 233 233 229 227 266 287 232 170 187 259 221 233 251 254 262 280 245 260 291 295 301 313 310 313 310 311 314 319 318 292 265 269 278 273 275 278 285 269 262 254 248 243 245
219 217 227 200 233 229 240 255 176 125 259 251 214 235 241 248 252 258 270 302 310 303 308 306 309 310 310 311 313 315 296 278 261 266 270 274 273 273 267 264 262 255 246 242
202 215 221 231 246 248 239 159 142 171 240 269 215 226 226 213 234 270 290 295 308 300 303 308 306 310 308 310 310 309 303 281 261 266 270 267 265 264 260 260 259 255 250 244
186 184 218 229 243 255 180 141 196 227 252 262 253 241 232 249 265 282 294 291 298 298 301 298 302 304 306 304 306 307 299 286 283 264 260 260 262 262 259 258 259 253 246 245
241 208 230 198 226 242 208 218 234 254 259 259 258 269 266 262 268 284 286 289 290 293 291 297 301 302 302 298 300 305 298 299 281 264 251 254 256 262 258 256 253 249 243 241
243 184 229 226 246 245 255 258 261 267 266 269 271 267 270 269 277 277 282 285 291 291 286 292 298 296 298 295 295 302 300 296 282 266 258 251 252 253 252 251 250 245 242 241
216 158 216 247 261 308 264 261 262 267 271 276 279 277 273 275 279 277 283 286 287 287 286 285 290 293 292 291 292 297 297 297 285 276 259 246 245 246 249 249 249 247 247 246
185 216 215 238 256 215 260 267 279 285 285 285 283 283 283 280 280 282 280 281 281 281 285 284 284 284 288 288 293 288 295 295 286 276 260 250 247 245 245 244 242 241 243 244